| time (UTC) | temp F | wind direction | speed MPH | gust MPH | rain 1hr in | rain 24hr in | rain mn in | humidity % | barometer mb |
| 20260507114528 | 33 | 5 | 0.0 | 0.0 | 0.00 | 0.00 | 0.00 | 86 | 1016.2 |
| 20260507113024 | 33 | 5 | 0.0 | 0.0 | 0.00 | 0.00 | 0.00 | 85 | 1016.1 |
| 20260507111523 | 33 | 5 | 0.0 | 0.0 | 0.00 | 0.00 | 0.00 | 84 | 1016.1 |
| 20260507110029 | 33 | 5 | 0.0 | 0.0 | 0.00 | 0.00 | 0.00 | 83 | 1016.1 |
| 20260507104520 | 33 | 5 | 0.0 | 0.0 | 0.00 | 0.00 | 0.00 | 82 | 1016.0 |
| 20260507103018 | 33 | 5 | 0.0 | 0.0 | 0.00 | 0.00 | 0.00 | 82 | 1016.1 |
| 20260507101518 | 33 | 5 | 0.0 | 0.0 | 0.00 | 0.00 | 0.00 | 82 | 1016.2 |
| 20260507100022 | 34 | 5 | 0.0 | 0.0 | 0.00 | 0.00 | 0.00 | 81 | 1016.1 |
| 20260507094513 | 34 | 5 | 0.0 | 0.0 | 0.00 | 0.00 | 0.00 | 81 | 1016.3 |
| 20260507093023 | 35 | 5 | 0.0 | 0.0 | 0.00 | 0.00 | 0.00 | 81 | 1016.2 |
| 20260507091518 | 35 | 5 | 0.0 | 0.0 | 0.00 | 0.00 | 0.00 | 80 | 1016.4 |
| 20260507090011 | 35 | 5 | 0.0 | 0.0 | 0.00 | 0.00 | 0.00 | 80 | 1016.5 |
| 20260507084515 | 35 | 5 | 0.0 | 0.0 | 0.00 | 0.00 | 0.00 | 81 | 1016.5 |
| 20260507083009 | 35 | 5 | 0.0 | 0.0 | 0.00 | 0.00 | 0.00 | 81 | 1016.5 |
| 20260507081509 | 35 | 5 | 0.0 | 0.0 | 0.00 | 0.00 | 0.00 | 81 | 1016.4 |
| 20260507080008 | 35 | 5 | 0.0 | 0.0 | 0.00 | 0.00 | 0.00 | 81 | 1016.3 |
| 20260507074507 | 35 | 5 | 0.0 | 0.0 | 0.00 | 0.00 | 0.00 | 80 | 1016.3 |
| 20260507073005 | 36 | 5 | 0.0 | 0.0 | 0.00 | 0.00 | 0.00 | 80 | 1016.4 |
| 20260507071504 | 36 | 5 | 0.0 | 0.0 | 0.00 | 0.00 | 0.00 | 80 | 1016.3 |
| 20260507070008 | 36 | 5 | 0.0 | 0.0 | 0.00 | 0.00 | 0.00 | 80 | 1016.4 |
| 20260507064502 | 36 | 5 | 0.0 | 0.0 | 0.00 | 0.00 | 0.00 | 79 | 1016.7 |
| 20260507063103 | 36 | 5 | 0.0 | 0.0 | 0.00 | 0.00 | 0.00 | 79 | 1016.7 |
| 20260507061600 | 36 | 5 | 0.0 | 0.0 | 0.00 | 0.00 | 0.00 | 79 | 1016.7 |
| 20260507060103 | 36 | 5 | 0.0 | 0.0 | 0.00 | 0.00 | 0.00 | 77 | 1016.8 |
| 20260507054557 | 37 | 5 | 0.0 | 0.0 | 0.00 | 0.00 | 0.00 | 76 | 1016.8 |
| 20260507053055 | 37 | 5 | 0.0 | 0.0 | 0.00 | 0.00 | 0.00 | 76 | 1016.7 |
| 20260507051557 | 38 | 5 | 0.0 | 0.0 | 0.00 | 0.00 | 0.00 | 74 | 1016.7 |
| 20260507050051 | 38 | 5 | 0.0 | 0.0 | 0.00 | 0.00 | 0.00 | 74 | 1016.7 |
| 20260507044552 | 38 | 5 | 0.0 | 0.0 | 0.00 | 0.00 | 0.00 | 73 | 1016.6 |
| 20260507043049 | 39 | 5 | 0.0 | 0.0 | 0.00 | 0.00 | 0.00 | 72 | 1016.6 |
| 20260507041545 | 39 | 5 | 0.0 | 0.0 | 0.00 | 0.00 | 0.00 | 70 | 1016.6 |
| 20260507040040 | 41 | 5 | 0.0 | 0.0 | 0.00 | 0.00 | 0.00 | 68 | 1016.6 |
| 20260507034539 | 42 | 5 | 0.0 | 0.0 | 0.00 | 0.00 | 0.00 | 65 | 1016.6 |
| 20260507033033 | 43 | 5 | 0.0 | 0.0 | 0.00 | 0.00 | 0.00 | 61 | 1016.6 |
| 20260507031530 | 44 | 5 | 0.0 | 0.0 | 0.00 | 0.00 | 0.00 | 57 | 1016.5 |
| 20260507030028 | 45 | 5 | 0.0 | 0.0 | 0.00 | 0.00 | 0.00 | 55 | 1016.4 |
| 20260507024526 | 45 | 5 | 0.0 | 1.0 | 0.00 | 0.00 | 0.00 | 54 | 1016.3 |
| 20260507023025 | 46 | 5 | 0.0 | 1.0 | 0.00 | 0.00 | 0.00 | 52 | 1016.3 |
| 20260507021519 | 46 | 351 | 0.0 | 2.0 | 0.00 | 0.00 | 0.00 | 51 | 1016.1 |
| 20260507020028 | 47 | 5 | 0.0 | 3.0 | 0.00 | 0.00 | 0.00 | 50 | 1015.8 |
| 20260507014513 | 47 | 360 | 0.0 | 1.0 | 0.00 | 0.00 | 0.00 | 49 | 1015.7 |
| 20260507013018 | 48 | 355 | 0.0 | 4.0 | 0.00 | 0.00 | 0.00 | 47 | 1015.5 |
| 20260507011509 | 49 | 303 | 0.0 | 5.0 | 0.00 | 0.00 | 0.00 | 46 | 1015.6 |
| 20260507010006 | 50 | 355 | 1.0 | 6.0 | 0.00 | 0.00 | 0.00 | 45 | 1015.5 |
| 20260507004502 | 50 | 325 | 2.0 | 8.0 | 0.00 | 0.00 | 0.00 | 43 | 1015.4 |
| 20260507003100 | 51 | 15 | 2.0 | 8.0 | 0.00 | 0.00 | 0.00 | 43 | 1015.4 |
| 20260507001558 | 51 | 229 | 3.0 | 10.0 | 0.00 | 0.00 | 0.00 | 42 | 1015.3 |
| 20260507000055 | 52 | 339 | 2.0 | 8.0 | 0.00 | 0.00 | 0.00 | 43 | 1015.1 |
| 20260506234552 | 52 | 313 | 2.0 | 15.0 | 0.00 | 0.00 | 0.00 | 41 | 1015.0 |
| 20260506233103 | 53 | 344 | 2.0 | 8.0 | 0.00 | 0.00 | 0.00 | 41 | 1014.8 |
| 20260506231548 | 53 | 342 | 4.0 | 15.0 | 0.00 | 0.00 | 0.00 | 40 | 1014.9 |
| 20260506230044 | 54 | 21 | 3.0 | 10.0 | 0.00 | 0.00 | 0.00 | 39 | 1014.7 |
| 20260506214516 | 56 | 32 | 2.0 | 8.0 | 0.00 | 0.00 | 0.00 | 39 | 1014.3 |
| 20260506213015 | 56 | 355 | 3.0 | 16.0 | 0.00 | 0.00 | 0.00 | 37 | 1014.2 |
| 20260506211522 | 57 | 333 | 5.0 | 15.0 | 0.00 | 0.00 | 0.00 | 36 | 1014.2 |
| 20260506210022 | 58 | 178 | 4.0 | 12.0 | 0.00 | 0.00 | 0.00 | 37 | 1014.1 |
| 20260506204512 | 56 | 5 | 2.0 | 10.0 | 0.00 | 0.00 | 0.00 | 38 | 1014.2 |
| 20260506203011 | 56 | 58 | 3.0 | 16.0 | 0.00 | 0.00 | 0.00 | 38 | 1014.5 |
| 20260506201511 | 57 | 343 | 5.0 | 13.0 | 0.00 | 0.00 | 0.00 | 38 | 1014.4 |
| 20260506200025 | 56 | 339 | 3.0 | 14.0 | 0.00 | 0.00 | 0.00 | 37 | 1014.4 |
| 20260506194509 | 56 | 28 | 6.0 | 16.0 | 0.00 | 0.00 | 0.00 | 37 | 1014.6 |
| 20260506193009 | 56 | 360 | 2.0 | 11.0 | 0.00 | 0.00 | 0.00 | 37 | 1014.7 |
| 20260506191508 | 57 | 128 | 3.0 | 13.0 | 0.00 | 0.00 | 0.00 | 37 | 1014.7 |
| 20260506190008 | 57 | 360 | 1.0 | 8.0 | 0.00 | 0.00 | 0.00 | 37 | 1014.6 |
| 20260506184506 | 57 | 118 | 2.0 | 9.0 | 0.00 | 0.00 | 0.00 | 39 | 1014.6 |
| 20260506183006 | 56 | 5 | 1.0 | 8.0 | 0.00 | 0.00 | 0.00 | 44 | 1014.7 |
| 20260506181504 | 55 | 229 | 1.0 | 7.0 | 0.00 | 0.00 | 0.00 | 42 | 1014.7 |
| 20260506180013 | 55 | 317 | 3.0 | 12.0 | 0.00 | 0.00 | 0.00 | 40 | 1014.8 |
| 20260506174503 | 56 | 269 | 1.0 | 10.0 | 0.00 | 0.00 | 0.00 | 40 | 1014.7 |
| 20260506173003 | 55 | 65 | 2.0 | 12.0 | 0.00 | 0.00 | 0.00 | 42 | 1015.0 |
| 20260506171502 | 56 | 230 | 1.0 | 12.0 | 0.00 | 0.00 | 0.00 | 41 | 1014.9 |
| 20260506170110 | 56 | 66 | 2.0 | 11.0 | 0.00 | 0.00 | 0.00 | 44 | 1015.0 |
| 20260506164623 | 55 | 328 | 2.0 | 10.0 | 0.00 | 0.01 | 0.00 | 42 | 1015.0 |
| 20260506163106 | 56 | 33 | 3.0 | 12.0 | 0.00 | 0.01 | 0.00 | 41 | 1014.9 |
| 20260506161555 | 54 | 91 | 2.0 | 9.0 | 0.00 | 0.01 | 0.00 | 44 | 1014.9 |
| 20260506160106 | 53 | 78 | 1.0 | 5.0 | 0.00 | 0.01 | 0.00 | 46 | 1015.0 |
| 20260506154554 | 53 | 349 | 3.0 | 7.0 | 0.00 | 0.01 | 0.00 | 47 | 1014.9 |
| 20260506153050 | 53 | 146 | 0.0 | 6.0 | 0.00 | 0.01 | 0.00 | 48 | 1015.0 |
| 20260506151550 | 53 | 16 | 1.0 | 4.0 | 0.00 | 0.01 | 0.00 | 49 | 1014.9 |
| 20260506150048 | 53 | 348 | 0.0 | 4.0 | 0.00 | 0.01 | 0.00 | 48 | 1015.0 |
| 20260506144546 | 52 | 239 | 1.0 | 4.0 | 0.00 | 0.01 | 0.00 | 51 | 1015.0 |
| 20260506143045 | 52 | 207 | 0.0 | 2.0 | 0.00 | 0.01 | 0.00 | 53 | 1015.0 |
| 20260506141602 | 51 | 27 | 0.0 | 1.0 | 0.00 | 0.01 | 0.00 | 64 | 1015.0 |
| 20260506140041 | 50 | 343 | 0.0 | 2.0 | 0.00 | 0.01 | 0.00 | 63 | 1015.0 |
| 20260506134538 | 49 | 355 | 0.0 | 2.0 | 0.00 | 0.02 | 0.00 | 63 | 1014.9 |
| 20260506133036 | 47 | 360 | 0.0 | 2.0 | 0.00 | 0.02 | 0.00 | 68 | 1014.6 |
| 20260506131537 | 46 | 5 | 0.0 | 0.0 | 0.00 | 0.02 | 0.00 | 72 | 1014.2 |
| 20260506130032 | 45 | 5 | 0.0 | 0.0 | 0.00 | 0.02 | 0.00 | 77 | 1014.2 |
| 20260506124537 | 43 | 5 | 0.0 | 0.0 | 0.00 | 0.06 | 0.00 | 80 | 1014.1 |
| 20260506123038 | 41 | 5 | 0.0 | 0.0 | 0.00 | 0.06 | 0.00 | 82 | 1013.9 |
| 20260506121527 | 40 | 5 | 0.0 | 0.0 | 0.00 | 0.06 | 0.00 | 84 | 1013.6 |
| 20260506120036 | 40 | 5 | 0.0 | 0.0 | 0.00 | 0.06 | 0.00 | 84 | 1013.5 |